Theta_e
304 330 341 341 340 340 339 338 336 338 343 349 347 344 344 347 348 350 349 349 347 342 337 334 332 329 327 325 324 323 322 319 317 316 316 316 319 318 321 323 330 329 331
311 329 328 335 337 336 338 339 340 339 343 345 346 346 345 346 347 346 346 344 341 340 336 334 331 328 326 323 323 321 320 320 317 316 315 312 317 321 324 324 325 320 323
308 331 328 330 334 333 335 337 337 339 336 337 343 344 344 347 343 342 343 342 340 338 335 332 329 327 324 323 321 323 321 319 320 319 317 311 310 315 318 318 316 314 313
307 332 329 327 329 331 335 336 335 333 331 333 338 341 339 341 340 341 340 336 339 335 333 332 329 327 325 322 321 322 324 322 318 320 319 317 318 310 308 312 311 312 312
305 332 331 328 330 330 330 333 333 333 332 327 334 340 342 342 341 339 333 331 333 334 334 331 329 326 320 320 324 324 321 320 316 314 312 310 308 308 305 302 307 310 310
305 328 334 332 329 330 329 330 330 333 339 333 339 342 341 341 335 332 328 327 328 328 329 328 327 326 326 325 324 322 319 316 315 313 311 309 307 307 306 304 305 306 308
305 314 329 330 330 324 322 324 329 332 341 343 343 342 342 338 333 330 328 327 325 323 325 326 325 323 322 321 319 319 317 315 313 312 312 311 310 309 308 305 304 303 306
306 311 328 329 327 324 322 325 330 335 341 341 339 338 336 334 332 331 327 324 324 323 326 326 323 320 320 319 318 319 318 316 314 314 312 312 312 310 309 306 304 305 303
304 310 324 328 328 326 324 330 336 340 340 338 337 335 330 330 328 326 325 324 323 322 320 320 318 318 318 317 315 314 314 314 313 312 311 310 310 308 309 310 310 308 302
304 314 330 329 331 326 333 340 340 339 338 336 334 332 329 327 327 325 322 320 318 318 316 315 315 316 316 315 312 310 310 309 309 310 308 307 307 307 308 308 308 310 308
309 321 335 338 334 336 340 337 335 332 331 330 329 328 326 325 324 323 320 316 315 316 315 315 314 312 310 309 307 306 306 305 305 306 306 306 307 306 307 308 311 310 309
319 331 336 335 335 334 333 329 329 327 326 325 324 322 321 320 319 316 314 314 313 313 312 310 308 307 305 303 303 302 302 301 301 302 303 304 309 305 306 307 309 307 307
329 331 331 331 330 328 326 325 324 323 323 322 320 318 317 316 314 313 313 312 311 307 305 303 301 300 300 299 299 300 299 299 299 300 301 303 305 302 302 302 304 304 304
325 327 327 327 326 324 323 322 321 321 320 319 318 316 315 314 312 311 311 311 307 302 300 299 298 298 297 297 297 297 296 296 299 301 302 306 304 300 300 302 301 300 297
324 324 324 322 321 321 320 320 319 319 318 317 315 314 312 311 310 309 309 309 304 301 299 297 296 295 295 296 295 295 294 295 298 302 304 307 305 304 302 300 298 298 298
322 321 319 319 318 318 318 317 317 317 317 315 311 310 309 309 308 308 307 305 303 299 297 294 293 292 294 295 298 297 294 297 298 299 301 303 299 298 298 299 300 301 301
316 316 316 315 316 316 316 314 314 314 311 309 309 308 307 307 307 307 306 304 300 297 294 292 291 289 290 294 295 297 293 293 293 295 296 298 297 295 295 296 298 299 301
312 312 313 313 314 314 313 312 311 309 308 307 306 306 306 305 305 304 303 302 300 297 294 292 289 287 290 294 294 293 289 289 292 297 297 296 295 294 294 293 294 295 296
309 309 310 309 308 309 309 308 307 307 305 304 304 304 304 303 302 301 300 300 299 297 296 292 288 286 286 293 293 290 288 289 291 294 297 297 296 295 294 292 291 293 294
305 303 305 306 305 306 306 304 303 303 302 302 302 303 302 301 300 299 298 297 297 296 296 291 288 290 285 291 291 290 287 286 287 291 293 295 294 293 292 290 290 287 289
303 304 304 302 303 304 303 301 301 300 301 302 302 301 299 296 292 290 290 295 295 295 292 290 288 286 286 285 290 291 286 286 287 288 290 292 293 292 291 292 290 289 291
300 301 300 300 302 302 301 300 299 301 302 301 295 292 291 291 289 287 288 288 290 294 292 288 284 283 283 288 288 289 290 290 285 286 288 289 292 291 291 291 291 291 291
300 301 300 300 300 300 301 298 299 300 299 294 291 288 288 287 286 285 283 285 286 285 283 282 280 281 283 282 287 288 290 291 287 288 292 292 291 291 290 292 291 291 287
300 301 300 300 299 300 300 299 300 298 295 292 290 287 285 284 283 283 283 282 282 281 282 281 279 280 281 282 284 285 284 288 288 289 287 291 290 291 291 289 289 288 286
297 299 299 299 299 300 299 300 300 297 294 293 291 288 286 284 283 283 282 283 282 282 280 279 280 280 281 282 287 287 285 286 288 287 286 285 284 286 285 285 286 285 284
297 297 298 298 298 299 299 299 299 297 294 291 289 287 285 284 283 283 281 287 287 288 287 287 284 283 286 289 290 290 289 289 289 285 283 284 284 284 283 283 283 283 283
Wind_Speed
10 12 18 20 19 17 19 18 20 15 12 8 10 6 6 7 4 4 7 9 7 7 5 4 4 4 3 5 4 3 3 3 3 2 4 3 4 5 4 2 3 5 5
9 13 17 19 23 23 19 17 16 13 8 6 5 5 5 3 7 5 7 9 10 7 6 7 5 6 5 5 3 3 2 1 1 2 1 4 5 4 4 3 2 5 3
14 15 18 20 21 20 20 18 16 15 11 7 6 4 3 5 5 5 7 7 9 8 7 6 4 5 4 4 2 3 4 2 1 2 2 1 3 4 3 5 3 5 4
16 19 19 20 20 21 19 16 13 13 11 10 8 7 5 5 3 7 6 5 8 6 5 6 5 5 3 4 3 3 2 3 1 2 2 0 1 1 5 3 4 6 6
19 19 21 24 23 20 17 13 13 12 8 7 8 7 6 6 6 6 8 6 6 6 6 6 5 5 3 3 4 4 4 2 2 0 2 2 3 2 0 5 5 2 2
18 21 23 23 20 16 15 13 14 10 8 11 7 10 13 12 10 7 6 5 4 4 5 6 5 6 5 5 4 4 5 3 3 1 2 2 1 1 2 3 5 5 3
19 19 20 19 19 18 15 10 13 11 8 9 9 11 15 15 14 10 8 9 5 3 5 6 5 5 5 5 4 4 4 3 1 1 0 1 2 1 2 2 4 3 3
19 21 21 21 22 22 18 16 18 15 10 10 10 11 11 7 8 8 8 6 6 5 5 6 5 6 6 5 4 1 2 3 2 1 2 1 1 1 2 2 2 7 4
16 22 21 21 22 22 20 18 17 14 13 14 13 12 12 11 9 10 8 6 6 5 6 7 6 7 6 6 4 4 4 3 3 3 3 1 1 1 3 2 1 2 8
18 20 21 23 21 20 18 15 13 15 16 15 14 11 12 13 11 9 9 7 6 7 7 7 7 6 5 5 7 6 6 6 4 4 5 4 2 4 3 3 2 2 3
17 20 20 22 24 22 19 18 18 19 16 16 15 15 12 13 10 10 8 7 7 7 7 7 8 8 8 7 7 6 6 6 6 5 5 5 5 4 4 3 2 3 2
17 21 22 22 23 21 20 18 18 18 17 16 17 15 13 14 12 9 7 7 8 7 9 12 11 9 9 8 8 6 6 6 5 5 5 5 4 5 5 4 4 3 3
20 24 24 23 23 23 20 18 18 17 17 16 19 17 14 14 11 9 8 8 11 12 12 11 11 10 8 7 6 5 5 5 5 5 6 6 5 5 4 4 5 4 5
24 23 21 22 22 22 22 21 19 17 16 17 18 18 14 12 10 8 9 12 12 13 12 11 10 8 7 7 5 5 5 5 5 6 6 4 5 6 6 5 6 7 6
23 24 23 21 22 23 22 20 20 18 17 18 18 15 13 13 13 12 12 12 13 12 11 10 8 6 7 6 5 5 6 6 7 6 7 6 9 13 11 6 7 7 6
22 23 25 27 25 24 22 21 20 18 18 17 16 16 15 14 13 11 12 12 12 11 10 9 8 7 7 14 14 9 6 6 6 7 7 5 11 11 13 17 15 10 7
26 27 27 27 24 24 22 22 20 19 18 18 16 15 15 14 12 11 12 12 11 9 8 8 8 8 6 14 13 13 5 5 5 6 6 7 7 9 9 13 14 10 12
28 27 26 26 23 23 22 21 19 18 18 17 16 15 14 13 11 11 11 10 8 8 7 8 7 6 7 14 14 12 5 5 5 6 5 5 7 7 9 9 9 9 8
25 27 26 26 24 22 21 21 19 18 18 15 15 14 13 12 11 11 9 7 8 6 7 7 7 6 6 13 14 10 6 7 7 6 6 6 7 11 13 9 8 8 7
23 25 25 23 22 20 20 21 19 18 17 15 14 13 12 11 10 8 7 4 6 6 8 8 6 11 7 13 13 11 4 6 5 6 6 10 8 13 13 6 6 7 8
27 25 23 20 18 18 22 20 18 17 15 14 14 13 12 12 10 8 4 5 6 9 9 7 5 6 7 6 14 14 5 5 5 5 7 7 14 14 13 10 5 4 10
24 24 21 18 16 16 19 19 18 15 16 15 15 13 11 8 7 10 8 9 9 10 8 6 4 4 6 12 12 15 13 10 4 5 5 6 13 13 13 10 15 12 11
19 17 21 20 16 14 16 18 15 15 16 16 13 12 12 9 8 9 8 8 8 7 5 5 4 4 4 5 15 13 14 12 5 4 7 13 14 13 9 12 14 11 9
17 16 19 19 15 13 14 15 15 15 16 15 13 11 12 9 9 7 6 6 5 5 5 4 4 4 5 6 6 6 6 11 8 9 7 9 9 9 9 9 9 9 10
14 15 16 16 15 13 12 13 14 14 13 13 12 11 8 9 9 7 5 7 4 4 5 3 2 4 5 5 6 4 5 5 5 5 4 5 4 7 9 8 9 9 10
14 14 15 15 13 11 11 10 11 13 12 12 9 8 7 5 6 7 5 9 9 9 7 5 3 2 3 10 12 11 13 14 10 5 4 6 5 7 9 9 9 10 13
Wind_Direction
185 145 146 152 153 152 155 169 165 186 187 174 157 148 173 146 108 119 128 134 132 106 97 103 122 131 138 137 137 128 103 37 24 6 338 330 289 285 287 287 357 18 24
153 147 148 154 161 162 170 172 175 164 176 173 162 140 152 168 117 130 102 111 109 127 142 144 166 152 123 121 84 95 69 47 23 90 52 346 327 311 327 45 54 28 355
166 157 155 165 166 162 168 169 175 171 171 161 113 89 61 84 87 92 108 117 131 131 137 150 141 126 114 141 140 130 121 114 324 203 140 351 267 322 343 352 20 31 1
180 164 163 166 171 175 175 164 177 178 181 164 136 130 174 134 110 133 122 128 137 128 132 119 123 130 123 149 159 141 125 117 160 37 43 298 260 316 325 321 343 7 357
169 172 169 170 181 169 174 174 171 186 191 154 130 135 129 113 116 115 118 108 97 107 121 130 119 114 111 108 125 98 70 49 103 118 24 13 2 37 220 290 317 323 349
170 173 176 172 174 168 167 165 174 182 169 165 164 159 138 140 134 134 129 110 94 80 86 98 95 99 104 113 102 99 91 89 95 136 102 128 105 306 289 301 306 292 307
168 175 168 170 169 163 164 159 173 171 163 145 157 151 148 155 149 146 129 124 105 90 99 104 110 113 115 112 105 106 114 139 151 91 121 144 222 194 226 226 279 285 295
168 172 173 168 167 165 158 166 174 164 158 133 140 131 133 124 126 124 118 109 117 129 130 113 102 97 93 76 55 101 127 151 108 44 17 309 302 238 216 230 250 317 318
164 174 170 168 167 164 162 162 163 153 143 130 125 118 115 119 115 111 111 121 125 111 101 98 103 92 96 90 84 64 42 77 46 41 48 60 351 326 283 269 284 300 324
155 168 167 163 162 154 154 146 134 129 127 116 116 110 110 109 107 110 108 112 100 97 100 100 95 96 91 73 63 45 32 54 27 38 26 5 304 304 299 293 287 229 328
161 163 157 145 144 145 140 133 129 118 112 107 107 108 107 105 104 107 103 104 99 95 94 90 73 62 58 49 58 57 33 40 16 10 13 348 323 330 325 323 293 23 336
164 143 135 134 135 132 128 121 113 112 110 115 109 104 101 102 98 101 100 101 103 91 74 78 75 67 59 46 51 45 23 16 0 349 349 340 347 10 350 357 4 353 330
149 137 135 138 139 128 119 115 112 114 115 115 109 107 110 106 106 108 107 97 78 81 75 80 73 63 50 43 32 26 359 344 352 340 338 328 14 23 5 357 359 341 334
153 138 135 137 130 120 117 115 113 112 116 112 111 103 106 106 96 82 79 91 92 89 83 75 74 65 50 34 14 358 352 354 356 341 334 16 56 41 5 346 351 348 329
147 135 133 125 118 115 112 112 110 109 113 109 106 105 95 93 95 92 91 91 90 87 87 84 71 58 46 22 10 12 4 357 2 3 11 51 44 27 10 353 347 339 328
135 127 123 112 110 111 110 109 108 111 110 107 101 101 99 97 96 97 93 91 89 90 93 83 74 51 32 16 26 31 14 10 23 8 356 85 31 5 359 360 352 343 334
126 119 114 111 112 109 113 112 112 111 104 102 101 100 99 96 96 97 98 97 100 104 91 83 71 56 26 17 22 35 26 22 17 16 15 26 11 7 359 346 344 347 340
117 113 107 106 110 111 110 112 109 106 103 99 100 98 99 97 95 97 98 100 103 105 101 87 70 51 30 25 26 25 13 19 15 20 22 8 2 9 -0 343 340 339 331
110 107 108 110 110 112 114 109 104 102 100 101 100 100 99 96 96 94 98 107 106 101 95 93 78 55 14 22 20 18 11 16 8 3 4 354 345 350 352 338 326 331 327
95 97 99 101 102 109 106 101 100 99 101 102 101 98 95 93 91 97 105 105 103 100 95 85 72 48 27 13 17 18 357 14 356 351 353 339 340 330 344 336 333 338 323
95 93 89 93 100 104 101 97 99 98 104 103 97 86 80 82 82 74 62 91 94 88 89 92 65 41 25 357 14 17 19 9 352 347 348 342 341 338 344 355 351 308 324
90 91 92 88 88 93 96 97 97 106 103 94 90 82 77 80 73 77 70 72 84 95 96 83 45 14 10 13 5 7 13 7 4 351 340 331 352 10 16 17 5 2 347
88 93 94 92 84 86 98 105 108 101 100 96 93 87 79 71 63 76 69 71 72 84 79 72 51 0 350 6 9 10 12 20 29 357 10 20 17 9 7 5 357 5 3
90 94 96 92 93 94 98 99 101 105 106 104 97 88 84 79 68 69 66 79 78 80 81 74 57 15 5 11 1 2 358 10 17 10 8 13 17 11 4 6 6 8 4
86 91 97 100 100 102 99 102 110 108 106 104 102 94 89 89 84 69 71 84 61 93 98 82 75 40 10 331 341 17 7 8 9 16 8 5 4 17 12 8 4 5 2
88 91 94 93 87 81 85 93 107 114 115 110 107 115 114 100 95 96 72 46 64 56 60 73 74 323 265 353 22 35 31 23 26 26 14 15 13 20 11 5 1 3 0